Date String (YYYY-MM-DD hh:mm:ss) UTC,Instrument flags,Ambient pressure (hPa),Sample flow (lpm),Bypass flow (lpm),Sample temperature (°C),Ambient temperature (°C),ASC tube jacket temperature (°C),LED temperature (°C),Box temperature (°C),Sample RH (%),Span deviation,Mass concentration (μg/m³),Mass concentration (μg/m³),Mass concentration (μg/m³)
DateTimeUTC,F1_M11,P_M11,Q1_M11,Q2_M11,T1_M11,T2_M11,T3_M11,T4_M11,T5_M11,U1_M11,ZSPAN_M11,X0_M11,X2_M11,X1_M11
2023-05-24 11:00:00,,0830.8,5.00,0.00,29.6,27.9,00.0,38.0,31.2,26.3,0003.3,0035.90,0023.89,0022.53
2023-05-24 11:01:00,,0830.9,5.00,0.00,29.6,27.9,00.0,38.0,31.2,26.2,0003.3,0035.78,0023.84,0022.50
2023-05-24 11:02:00,,0830.8,5.00,0.00,29.6,27.9,00.0,38.0,31.2,26.4,0003.4,0036.82,0023.79,0022.44
2023-05-24 11:03:00,,0830.9,5.00,0.00,29.6,27.9,00.0,38.0,31.2,26.5,0003.4,0036.87,0023.76,0022.40
2023-05-24 11:04:00,,0830.9,5.00,0.00,29.6,27.9,00.0,38.0,31.2,26.6,0003.3,0037.56,0023.75,0022.38
2023-05-24 11:05:00,,0830.9,5.00,0.00,29.6,27.8,00.0,38.0,31.1,26.6,0003.3,0037.33,0023.75,0022.32
2023-05-24 11:06:00,,0830.9,5.00,0.00,29.6,27.8,00.0,38.0,31.1,26.7,0003.3,0036.79,0023.71,0022.31
2023-05-24 11:07:00,,0830.9,5.00,0.00,29.6,27.8,00.0,38.0,31.1,26.8,0003.3,0036.91,0023.69,0022.29
2023-05-24 11:08:00,,0830.9,5.01,0.00,29.6,27.7,00.0,38.0,31.1,26.8,0003.2,0037.45,0023.68,0022.25
2023-05-24 11:09:00,,0830.9,5.00,0.00,29.5,27.7,00.0,38.0,31.1,26.8,0003.1,0037.30,0023.63,0022.18
2023-05-24 11:10:00,,0830.9,5.00,0.00,29.5,27.7,00.0,38.0,31.0,26.9,0003.2,0037.28,0023.54,0022.12
2023-05-24 11:11:00,,0830.9,5.01,0.00,29.5,27.6,00.0,38.0,31.0,27.0,0003.1,0037.98,0023.52,0022.10
2023-05-24 11:12:00,,0830.9,5.00,0.00,29.5,27.6,00.0,37.9,31.0,26.9,0003.1,0038.61,0023.56,0022.08
2023-05-24 11:13:00,,0830.9,5.00,0.00,29.5,27.6,00.0,37.9,31.0,26.9,0003.2,0038.35,0023.55,0022.05
2023-05-24 11:14:00,,0830.9,4.99,0.00,29.5,27.6,00.0,37.9,31.0,26.8,0003.2,0038.25,0023.52,0022.03
2023-05-24 11:15:00,,0830.9,5.00,0.00,29.5,27.6,00.0,37.9,31.0,26.9,0003.2,0038.43,0023.44,0021.99
2023-05-24 11:16:00,,0830.9,5.00,0.00,29.5,27.6,00.0,37.9,31.0,26.9,0003.3,0037.65,0023.38,0021.99
2023-05-24 11:17:00,,0830.9,5.00,0.00,29.5,27.7,00.0,37.9,31.0,26.9,0003.2,0037.60,0023.39,0022.01
2023-05-24 11:18:00,,0830.9,5.00,0.00,29.5,27.7,00.0,37.9,31.0,26.8,0003.2,0037.70,0023.36,0021.99
2023-05-24 11:19:00,,0830.9,5.01,0.00,29.5,27.7,00.0,37.9,31.0,26.9,0003.2,0037.04,0023.28,0021.92
2023-05-24 11:20:00,,0830.9,5.00,0.00,29.5,27.8,00.0,37.9,31.0,26.9,0003.3,0036.34,0023.22,0021.86
2023-05-24 11:21:00,,0830.9,5.00,0.00,29.5,27.8,00.0,37.9,31.0,26.9,0003.3,0036.04,0023.13,0021.80
2023-05-24 11:22:00,,0830.9,5.00,0.00,29.5,27.8,00.0,37.9,31.0,27.0,0003.3,0035.52,0023.12,0021.78
2023-05-24 11:23:00,,0831.0,5.00,0.00,29.5,27.8,00.0,37.9,31.0,27.0,0003.3,0034.90,0023.01,0021.73
2023-05-24 11:24:00,,0830.9,4.99,0.00,29.5,27.8,00.0,37.9,31.1,27.0,0003.2,0034.57,0022.94,0021.67
2023-05-24 11:25:00,,0831.0,5.00,0.00,29.5,27.8,00.0,37.9,31.1,27.2,0003.3,0035.18,0022.85,0021.60
2023-05-24 11:26:00,,0831.0,5.00,0.00,29.5,27.8,00.0,37.9,31.1,27.4,0003.3,0035.35,0022.87,0021.56
2023-05-24 11:27:00,,0831.0,5.00,0.00,29.5,27.8,00.0,37.9,31.1,27.5,0003.2,0035.30,0022.85,0021.48
2023-05-24 11:28:00,,0831.0,4.99,0.00,29.5,27.8,00.0,37.9,31.1,27.5,0003.2,0035.11,0022.77,0021.33
2023-05-24 11:29:00,,0831.1,5.00,0.00,29.5,27.8,00.0,37.9,31.1,27.5,0003.2,0035.63,0022.67,0021.22
2023-05-24 11:30:00,,0831.0,5.00,0.00,29.5,27.8,00.0,37.9,31.1,27.5,0003.2,0036.63,0022.59,0021.19
2023-05-24 11:31:00,,0831.1,5.00,0.00,29.5,27.8,00.0,37.9,31.1,27.6,0003.1,0037.68,0022.58,0021.15
2023-05-24 11:32:00,,0831.0,5.00,0.00,29.5,27.9,00.0,37.9,31.1,27.7,0003.1,0037.96,0022.63,0021.09
2023-05-24 11:33:00,,0831.0,5.00,0.00,29.5,27.9,00.0,37.9,31.1,27.7,0003.1,0037.92,0022.53,0021.02
2023-05-24 11:34:00,,0831.0,5.00,0.00,29.5,27.9,00.0,37.9,31.1,27.8,0002.9,0037.95,0022.49,0020.95
2023-05-24 11:35:00,,0831.0,5.00,0.00,29.6,27.9,00.0,37.9,31.1,27.8,0002.8,0038.38,0022.41,0020.86
2023-05-24 11:36:00,,0831.0,5.00,0.00,29.6,27.9,00.0,37.9,31.1,27.9,0002.8,0037.31,0022.32,0020.78
2023-05-24 11:37:00,,0831.1,5.00,0.00,29.6,27.8,00.0,37.9,31.1,27.9,0002.7,0036.16,0022.14,0020.67
2023-05-24 11:38:00,,0831.1,5.00,0.00,29.6,27.8,00.0,37.9,31.1,27.9,0002.8,0036.92,0022.05,0020.63
2023-05-24 11:39:00,,0831.2,5.00,0.00,29.6,27.9,00.0,37.9,31.1,27.9,0002.9,0036.91,0021.93,0020.58
2023-05-24 11:40:00,,0831.1,5.00,0.00,29.6,27.9,00.0,37.9,31.1,27.9,0002.7,0036.41,0021.90,0020.57
2023-05-24 11:41:00,,0831.1,5.00,0.00,29.6,27.9,00.0,37.9,31.1,27.9,0002.7,0035.71,0021.89,0020.54
2023-05-24 11:42:00,,0831.1,5.01,0.00,29.6,27.9,00.0,37.9,31.1,28.0,0002.7,0035.26,0021.83,0020.51
2023-05-24 11:43:00,,0831.1,4.99,0.00,29.6,27.9,00.0,37.9,31.1,28.0,0002.7,0035.87,0021.75,0020.48
2023-05-24 11:44:00,,0831.1,5.00,0.00,29.6,27.9,00.0,37.9,31.1,27.9,0002.8,0035.98,0021.72,0020.43
2023-05-24 11:45:00,,0831.2,5.00,0.00,29.6,27.9,00.0,37.9,31.1,27.9,0002.9,0035.91,0021.65,0020.38
2023-05-24 11:46:00,,0831.2,5.00,0.00,29.6,27.9,00.0,37.9,31.1,27.9,0003.0,0034.87,0021.60,0020.38
2023-05-24 11:47:00,,0831.2,5.01,0.00,29.6,27.9,00.0,37.9,31.1,27.2,0002.9,0035.01,0021.64,0020.42
2023-05-24 11:48:00,,0831.1,5.00,0.00,29.6,27.9,00.0,37.9,31.1,25.9,0003.0,0034.93,0021.75,0020.53
2023-05-24 11:49:00,,0831.1,5.00,0.00,29.6,27.9,00.0,37.9,31.1,25.3,0003.1,0034.87,0021.85,0020.63
2023-05-24 11:50:00,,0831.1,4.99,0.00,29.6,27.8,00.0,37.9,31.1,25.5,0003.1,0034.94,0021.93,0020.74
2023-05-24 11:51:00,,0831.1,4.99,0.00,29.6,27.8,00.0,37.9,31.1,25.2,0003.2,0035.30,0022.06,0020.87
2023-05-24 11:52:00,,0831.1,5.00,0.00,29.6,27.8,00.0,37.9,31.1,25.2,0003.3,0035.55,0022.20,0020.98
2023-05-24 11:53:00,,0831.1,5.01,0.00,29.6,27.8,00.0,37.9,31.1,25.2,0003.4,0035.06,0022.27,0021.07
2023-05-24 11:54:00,,0831.2,5.00,0.00,29.6,27.8,00.0,37.9,31.1,25.2,0003.6,0034.42,0022.35,0021.18
2023-05-24 11:55:00,,0831.2,5.01,0.00,29.6,27.8,00.0,37.9,31.1,25.0,0003.6,0034.38,0022.45,0021.33
2023-05-24 11:56:00,,0831.2,5.00,0.00,29.5,27.8,00.0,37.9,31.1,24.4,0003.5,0034.43,0022.57,0021.47
2023-05-24 11:57:00,,0831.2,5.00,0.00,29.5,27.7,00.0,37.9,31.1,23.7,0003.6,0034.84,0022.74,0021.66
2023-05-24 11:58:00,,0831.2,4.99,0.00,29.5,27.7,00.0,37.9,31.1,23.4,0003.6,0034.97,0022.88,0021.80
2023-05-24 11:59:00,,0831.2,5.00,0.00,29.5,27.7,00.0,37.9,31.1,23.0,0003.5,0035.08,0022.92,0021.88
